[[{"header":{"parameterUnit":"m.s-1","parameterCategory":1,"la1":30.2991,"la2":30.254,"lo1":-89.0895,"lo2":-89.0444,"dy":0.0017,"dx":0.0017,"nx":28,"ny":28,"refTime":"2023-07-25T21:00:00:Z","depth":0,"parameterNumber":2,"parameterNumberName":"U-component_of_WINDS"},"data":[0,0,0,0,0,0,0,0,0,0,0,0,0,0,0,0,0,0,0,0,0,0,0,0,0,0,0,0,0,0,0,0,0,0,0,0,0,0,0,0,0,0,0,0,0,0,0,0,0,0,0,0,0,0,0,0,0,0,1.9413,1.9413,0,1.9419,1.9419,1.9419,1.9368,1.9367,1.9366,1.9364,1.9371,1.9372,1.9374,0,0,0,0,0,0,0,0,0,0,0,0,0,1.9359,1.936,1.9413,1.9413,1.9413,1.9419,1.9419,1.9419,1.9369,1.9367,1.9365,1.9364,1.937,1.9372,1.9374,0,0,0,0,0,0,0,0,0,0,0,0,0,1.9375,1.9361,1.9413,1.9389,1.9387,1.9419,1.9419,1.9419,1.9369,1.9367,1.9365,1.9363,1.937,1.9372,1.9374,1.943,0,0,1.9381,1.9382,0,0,0,0,0,0,0,0,1.9375,1.9377,1.9392,1.9391,1.9388,1.9391,1.9402,1.9423,1.937,1.9376,1.9364,1.9362,1.9379,1.9381,1.9386,1.943,1.943,1.9381,1.9382,1.9383,1.9384,0,0,0,0,0,0,0,1.9373,1.9377,1.9415,1.9393,1.939,1.9378,1.9378,1.9406,1.9389,1.9375,1.9372,1.9373,1.9378,1.9384,1.9386,1.9431,1.9381,1.9383,1.9384,1.9385,1.9518,1.9521,0,0,0,0,0,0,1.9376,1.9376,1.9415,1.9416,1.9376,1.938,1.938,1.9392,1.9389,1.9386,1.9375,1.937,1.9381,1.9383,1.9386,1.9449,1.9383,1.9385,1.9387,1.9516,1.9519,1.9521,0,0,0,0,0,0,1.9375,1.938,1.9415,1.9395,1.9399,1.9384,1.9397,1.9393,1.94,1.9388,1.9385,1.9384,1.938,1.9383,1.9419,1.9449,1.9386,1.9388,1.9514,1.9517,1.952,1.9578,0,0,0,0,0,0,1.9373,1.9379,1.9401,1.9396,1.94,1.9448,1.9399,1.9395,1.9404,1.9398,1.9397,1.9394,1.9378,1.9416,1.9421,1.9451,1.939,1.9511,1.9515,1.9519,1.9573,1.9583,1.9591,0,0,0,0,0,1.9371,1.9417,1.9402,1.9407,1.9426,1.945,1.9452,1.9433,1.9406,1.9427,1.942,1.9394,1.9445,1.942,1.9425,1.9456,1.9509,1.9514,1.9519,1.9569,1.9581,1.959,0,0,0,0,0,0,1.9427,1.9416,1.9399,1.9445,1.9449,1.9441,1.9467,1.9446,1.9458,1.9452,1.9428,1.9428,1.9467,1.9466,1.9438,1.9509,1.9472,1.9479,1.9509,1.952,1.9528,1.9527,1.9392,0,0,0,0,0,1.9444,1.9465,1.9454,1.9496,1.9498,1.9483,1.9492,1.9477,1.948,1.9481,1.9476,1.948,1.9497,1.9508,1.9523,1.9573,1.9571,1.9597,1.9606,1.9613,1.9618,1.9642,1.9653,1.9538,1.9538,1.9537,0,0,1.9481,1.9478,1.9492,1.9507,1.9508,1.9529,1.9484,1.9509,1.9524,1.9485,1.9518,1.9515,1.9517,1.956,1.9578,1.956,1.965,1.9619,1.9625,1.9626,1.9649,1.966,1.9669,1.9541,1.954,1.954,0,0,1.9558,1.9558,1.9591,1.9593,1.9594,1.9583,1.9592,1.9587,1.9583,1.9616,1.9586,1.9604,1.9634,1.9636,1.9642,1.9718,1.9694,1.9724,1.9769,1.9793,1.9802,1.981,1.9836,1.9845,1.9729,1.9729,1.9729,0,1.9603,1.9633,1.9611,1.9637,1.9644,1.9609,1.9642,1.9645,1.9651,1.9657,1.9636,1.9671,1.967,1.9712,1.973,1.9736,1.9744,1.9723,1.9803,1.981,1.9818,1.9841,1.9851,1.9733,1.9732,1.9732,1.9732,0,1.9687,1.9709,1.9736,1.9742,1.9752,1.9781,1.9763,1.9776,1.976,1.9751,1.9784,1.9782,1.9795,1.9804,1.9789,1.9843,1.9831,1.9807,1.9769,1.9832,1.9854,1.9863,1.9737,1.9736,1.9735,1.9734,0,0,1.9799,1.9792,1.9802,1.9803,1.9802,1.9818,1.9846,1.9858,1.9868,1.9874,1.9896,1.9921,1.9898,1.9904,1.9889,1.991,1.9968,1.9883,1.9883,1.9897,2.0026,2.0043,2.0054,1.9953,1.9955,1.9956,2.0025,0,1.9873,1.9918,1.9899,1.9946,1.9965,1.9931,1.9955,1.9957,1.9949,1.9964,1.9955,1.9973,1.9942,1.9945,1.9965,1.9957,1.9993,1.9952,1.9972,1.9973,1.9971,2.0066,2.0084,2.0149,2.0034,2.0035,2.0036,0,1.9964,1.9972,2.0021,2.0015,2.0022,2.0043,2.0051,2.0066,2.0067,2.006,2.0066,2.0046,2.0072,2.0035,2.007,2.0042,2.0049,2.0046,2.0048,2.0048,2.0007,2.0066,2.0169,2.0178,2.005,2.0049,2.0048,0,2.0038,2.0062,2.0093,2.0096,2.009,2.0105,2.0104,2.0102,2.011,2.0118,2.0122,2.0134,2.0139,2.0148,2.0131,2.0106,2.0168,2.013,2.0161,2.0162,2.0175,2.0174,2.0278,2.0183,2.0182,2.0182,2.0182,0,2.0121,2.0152,2.0126,2.0146,2.0179,2.0156,2.019,2.0184,2.0183,2.0201,2.0173,2.019,2.0167,2.0182,2.0169,2.0199,2.0202,2.0197,2.0192,2.0198,2.0198,2.0201,2.0196,2.0185,2.0184,2.0184,2.0183,0,2.0209,2.0193,2.0225,2.0216,2.0215,2.0239,2.0232,2.0249,2.0239,2.0261,2.0265,2.025,2.0266,2.025,2.0265,2.0256,2.0296,2.0286,2.0295,2.0291,2.0323,2.032,2.0432,2.0444,2.0342,2.0343,2.0344,0,2.0262,2.0285,2.0278,2.0287,2.0286,2.0302,2.0309,2.0288,2.0297,2.0298,2.0315,2.0329,2.0338,2.0365,2.0355,2.0366,2.0355,2.0394,2.0356,2.0361,2.0353,2.0351,2.0353,2.0401,2.0402,2.0403,2.0404,0,2.0357,2.0348,2.0359,2.0367,2.0376,2.0382,2.0386,2.0395,2.0373,2.0384,2.0399,2.0406,2.0421,2.0434,2.0442,2.044,2.0418,2.0416,2.0423,2.0428,2.0431,2.0428,2.0313,2.0413,2.0412,2.0411,2.0411,2.041,2.0428,2.0446,2.0443,2.0456,2.0456,2.0459,2.0474,2.0466,2.0478,2.0487,2.0474,2.0493,2.0492,2.05,2.0501,2.0515,2.0498,2.051,2.0512,2.0515,2.0518,2.0431,2.0516,2.0516,2.0516,2.0516,2.0515,0,2.052,2.0516,2.0528,2.0533,2.0543,2.0521,2.0523,2.0533,2.0549,2.055,2.0559,2.0576,2.0588,2.0579,2.0589,2.0602,2.0592,2.0605,2.0603,2.0603,2.0534,2.0525,2.0613,2.0613,2.0613,2.0613,2.0613,2.0613,2.0569,2.0596,2.0587,2.0614,2.061,2.0627,2.063,2.0633,2.0633,2.0652,2.0662,2.0656,2.0652,2.0662,2.0672,2.0669,2.0673,2.0689,2.0683,2.0618,2.0608,2.0599,2.0591,2.0691,2.0691,2.075,2.0751,2.0751]},{"header":{"parameterUnit":"m.s-1","parameterCategory":1,"la1":30.2991,"la2":30.254,"lo1":-89.0895,"lo2":-89.0444,"dy":0.0017,"dx":0.0017,"nx":28,"ny":28,"refTime":"2023-07-25T21:00:00:Z","depth":0,"parameterNumber":3,"parameterNumberName":"V-component_of_WINDS"},"data":[0,0,0,0,0,0,0,0,0,0,0,0,0,0,0,0,0,0,0,0,0,0,0,0,0,0,0,0,0,0,0,0,0,0,0,0,0,0,0,0,0,0,0,0,0,0,0,0,0,0,0,0,0,0,0,0,0,0,-1.1133,-1.1132,0,-1.1119,-1.1119,-1.1119,-1.1111,-1.1111,-1.1111,-1.1111,-1.1097,-1.1097,-1.1097,0,0,0,0,0,0,0,0,0,0,0,0,0,-1.115,-1.115,-1.1133,-1.1132,-1.1132,-1.1119,-1.1119,-1.1119,-1.1111,-1.1111,-1.1111,-1.1111,-1.1097,-1.1097,-1.1097,0,0,0,0,0,0,0,0,0,0,0,0,0,-1.114,-1.115,-1.1133,-1.1127,-1.1126,-1.112,-1.1119,-1.1119,-1.1111,-1.1111,-1.1111,-1.1111,-1.1098,-1.1097,-1.1097,-1.1094,0,0,-1.1095,-1.1095,0,0,0,0,0,0,0,0,-1.1141,-1.114,-1.1128,-1.1127,-1.1126,-1.1117,-1.112,-1.1111,-1.1111,-1.1117,-1.1111,-1.1111,-1.1104,-1.1103,-1.11,-1.1094,-1.1093,-1.1095,-1.1095,-1.1094,-1.1094,0,0,0,0,0,0,0,-1.1142,-1.114,-1.1127,-1.1128,-1.1127,-1.1125,-1.1123,-1.1119,-1.1111,-1.1116,-1.1116,-1.1114,-1.1103,-1.1101,-1.11,-1.1093,-1.1095,-1.1094,-1.1094,-1.1094,-1.1084,-1.1084,0,0,0,0,0,0,-1.1143,-1.1141,-1.1128,-1.1127,-1.1134,-1.1124,-1.1123,-1.112,-1.1111,-1.1109,-1.1114,-1.1114,-1.1102,-1.1101,-1.11,-1.1096,-1.1094,-1.1094,-1.1094,-1.1084,-1.1084,-1.1084,0,0,0,0,0,0,-1.1144,-1.1142,-1.1128,-1.1134,-1.1132,-1.1124,-1.1121,-1.112,-1.1117,-1.1109,-1.1108,-1.1113,-1.1102,-1.11,-1.1096,-1.1096,-1.1094,-1.1093,-1.1084,-1.1084,-1.1084,-1.109,0,0,0,0,0,0,-1.1144,-1.1143,-1.1142,-1.1134,-1.1132,-1.1125,-1.1121,-1.112,-1.1117,-1.1116,-1.1108,-1.1107,-1.1102,-1.1097,-1.1095,-1.1095,-1.1093,-1.1084,-1.1084,-1.1084,-1.109,-1.109,-1.1091,0,0,0,0,0,-1.1145,-1.1144,-1.1142,-1.114,-1.113,-1.1125,-1.1124,-1.1118,-1.1117,-1.1116,-1.1111,-1.1107,-1.1096,-1.1096,-1.1095,-1.1094,-1.1084,-1.1084,-1.1084,-1.109,-1.109,-1.1091,0,0,0,0,0,0,-1.1152,-1.1143,-1.114,-1.1137,-1.1132,-1.1124,-1.1122,-1.1119,-1.1114,-1.1114,-1.1107,-1.1105,-1.1101,-1.1097,-1.1098,-1.1092,-1.109,-1.1089,-1.1094,-1.1095,-1.1095,-1.1096,-1.1092,0,0,0,0,0,-1.1153,-1.1149,-1.1141,-1.1139,-1.1137,-1.113,-1.1127,-1.1123,-1.1118,-1.1116,-1.111,-1.1105,-1.11,-1.1098,-1.1093,-1.1089,-1.1088,-1.1088,-1.1089,-1.1089,-1.1089,-1.1087,-1.1087,-1.1084,-1.1084,-1.1084,0,0,-1.1155,-1.115,-1.1148,-1.114,-1.1136,-1.1132,-1.1128,-1.1124,-1.1121,-1.1115,-1.1111,-1.1106,-1.11,-1.1096,-1.1094,-1.1093,-1.109,-1.1089,-1.109,-1.1089,-1.1087,-1.1087,-1.1088,-1.1084,-1.1084,-1.1084,0,0,-1.1157,-1.1152,-1.115,-1.1146,-1.1139,-1.1135,-1.1134,-1.1127,-1.1124,-1.1119,-1.1115,-1.1111,-1.1103,-1.1099,-1.1096,-1.1096,-1.1093,-1.1095,-1.1097,-1.1095,-1.1095,-1.1096,-1.1096,-1.1096,-1.1095,-1.1095,-1.1095,0,-1.116,-1.1154,-1.1149,-1.1145,-1.1142,-1.1137,-1.1134,-1.113,-1.1122,-1.112,-1.1119,-1.1109,-1.1104,-1.1099,-1.11,-1.1097,-1.1096,-1.1096,-1.1096,-1.1096,-1.1096,-1.1096,-1.1096,-1.1095,-1.1095,-1.1095,-1.1095,0,-1.1159,-1.1155,-1.1153,-1.1146,-1.1143,-1.114,-1.1134,-1.1131,-1.1128,-1.1124,-1.1119,-1.1113,-1.1107,-1.1106,-1.1102,-1.11,-1.11,-1.1097,-1.1095,-1.1097,-1.1097,-1.1097,-1.1096,-1.1095,-1.1095,-1.1095,0,0,-1.1164,-1.1154,-1.1154,-1.1151,-1.1143,-1.114,-1.1137,-1.1131,-1.1129,-1.1124,-1.1121,-1.1115,-1.1112,-1.1109,-1.1105,-1.1103,-1.1104,-1.1101,-1.1101,-1.1101,-1.1101,-1.1103,-1.1103,-1.1101,-1.1101,-1.1101,-1.1101,0,-1.1165,-1.1158,-1.1153,-1.1149,-1.1145,-1.114,-1.1137,-1.1132,-1.1128,-1.1125,-1.112,-1.1116,-1.1113,-1.1111,-1.1109,-1.1104,-1.1103,-1.1104,-1.1098,-1.1098,-1.11,-1.1103,-1.1104,-1.1105,-1.1101,-1.1101,-1.1101,0,-1.1164,-1.116,-1.1155,-1.1148,-1.1147,-1.1144,-1.1139,-1.1135,-1.1129,-1.1127,-1.1123,-1.1119,-1.1115,-1.1113,-1.1108,-1.1108,-1.1105,-1.1103,-1.1103,-1.1102,-1.11,-1.1101,-1.1105,-1.1105,-1.1101,-1.1101,-1.1101,0,-1.1169,-1.1161,-1.1157,-1.1155,-1.1147,-1.1145,-1.1142,-1.1136,-1.1133,-1.1128,-1.1126,-1.1121,-1.1118,-1.1114,-1.1109,-1.1108,-1.1104,-1.1102,-1.1101,-1.1101,-1.11,-1.11,-1.1103,-1.1099,-1.1099,-1.1099,-1.1099,0,-1.117,-1.1167,-1.1159,-1.1157,-1.1154,-1.1148,-1.1145,-1.1141,-1.1136,-1.1133,-1.1128,-1.1125,-1.1118,-1.1114,-1.111,-1.1106,-1.1105,-1.1103,-1.1101,-1.1103,-1.1103,-1.1101,-1.1101,-1.1099,-1.1099,-1.1099,-1.1099,0,-1.1174,-1.1168,-1.1164,-1.1157,-1.1155,-1.1153,-1.1147,-1.1144,-1.114,-1.1136,-1.1135,-1.1128,-1.1123,-1.1118,-1.1111,-1.1108,-1.1105,-1.1103,-1.1106,-1.1106,-1.1106,-1.1106,-1.1106,-1.1106,-1.1103,-1.1103,-1.1103,0,-1.1174,-1.1172,-1.1165,-1.1162,-1.1159,-1.1155,-1.1152,-1.1147,-1.1144,-1.1137,-1.1135,-1.113,-1.1126,-1.1119,-1.1113,-1.1108,-1.1106,-1.1107,-1.1106,-1.1107,-1.1106,-1.1106,-1.1106,-1.1107,-1.1107,-1.1107,-1.1107,0,-1.1176,-1.1174,-1.117,-1.1165,-1.1162,-1.1157,-1.1153,-1.1151,-1.1145,-1.1141,-1.1137,-1.1133,-1.1127,-1.1122,-1.1116,-1.1112,-1.1109,-1.1108,-1.1108,-1.1109,-1.1111,-1.111,-1.1107,-1.1108,-1.1108,-1.1108,-1.1108,-1.1108,-1.1179,-1.1176,-1.1171,-1.1167,-1.1163,-1.1159,-1.1156,-1.1152,-1.1148,-1.1142,-1.1139,-1.1134,-1.1129,-1.1121,-1.1117,-1.1113,-1.1112,-1.1111,-1.1111,-1.1111,-1.1111,-1.1112,-1.1112,-1.1112,-1.1112,-1.1112,-1.1112,0,-1.118,-1.1177,-1.1173,-1.1167,-1.1163,-1.116,-1.1155,-1.1153,-1.1149,-1.1144,-1.114,-1.1134,-1.1129,-1.1124,-1.1119,-1.1117,-1.1115,-1.1115,-1.1115,-1.1114,-1.1113,-1.1114,-1.1117,-1.1117,-1.1117,-1.1117,-1.1117,-1.1117,-1.1181,-1.1177,-1.1174,-1.1168,-1.1164,-1.116,-1.1157,-1.1153,-1.1149,-1.1144,-1.114,-1.1136,-1.1131,-1.1125,-1.1121,-1.1119,-1.1117,-1.1118,-1.1116,-1.1115,-1.1115,-1.1114,-1.1115,-1.1118,-1.1118,-1.1118,-1.1118,-1.1118]}]]